Time,TemperatureF,DewpointF,PressureIn,WindDirection,WindDirectionDegrees,WindSpeedMPH,WindSpeedGustMPH,Humidity,HourlyPrecipIn,Conditions,Clouds,dailyrainin,SoftwareType,DateUTC
2013-03-18 00:00:00,35.8,13.8,30.28,SW,219,1.0,6.0,40,0.00,,,0.01,meteohub,2013-03-18 04:00:00,
2013-03-18 00:02:00,35.8,14.4,30.29,SW,236,5.0,6.0,41,0.00,,,0.01,meteohub,2013-03-18 04:02:00,
2013-03-18 00:04:00,35.6,14.2,30.29,SSW,211,1.0,6.0,41,0.00,,,0.01,meteohub,2013-03-18 04:04:00,
2013-03-18 00:10:00,35.4,14.0,30.29,SW,224,2.0,6.0,41,0.00,,,0.00,meteohub,2013-03-18 04:10:00,
2013-03-18 00:15:00,35.2,13.8,30.29,SW,224,2.0,7.0,41,0.00,,,0.00,meteohub,2013-03-18 04:15:00,
2013-03-18 00:20:00,35.1,13.6,30.29,SSW,205,2.0,7.0,41,0.00,,,0.00,meteohub,2013-03-18 04:20:00,
2013-03-18 00:25:00,34.9,13.6,30.29,SSW,210,1.0,7.0,41,0.00,,,0.00,meteohub,2013-03-18 04:25:00,
2013-03-18 00:30:00,34.7,13.5,30.29,SW,231,5.0,7.0,41,0.00,,,0.00,meteohub,2013-03-18 04:30:00,
2013-03-18 00:36:00,34.5,13.8,30.30,SW,235,4.0,7.0,42,0.00,,,0.00,meteohub,2013-03-18 04:36:00,
2013-03-18 00:41:00,34.5,13.3,30.30,SW,233,4.0,7.0,41,0.00,,,0.00,meteohub,2013-03-18 04:41:00,
2013-03-18 00:47:00,34.3,13.1,30.30,SW,219,2.0,6.0,41,0.00,,,0.00,meteohub,2013-03-18 04:47:00,
2013-03-18 00:52:00,34.2,13.5,30.30,SW,219,5.0,6.0,42,0.00,,,0.00,meteohub,2013-03-18 04:52:00,
2013-03-18 00:57:00,34.2,13.5,30.30,SW,228,4.0,6.0,42,0.00,,,0.00,meteohub,2013-03-18 04:57:00,
2013-03-18 01:02:00,34.0,13.3,30.30,SW,221,3.0,8.0,42,0.00,,,0.00,meteohub,2013-03-18 05:02:00,
2013-03-18 01:07:00,34.0,13.8,30.30,SW,222,2.0,8.0,43,0.00,,,0.00,meteohub,2013-03-18 05:07:00,
2013-03-18 01:12:00,33.8,13.1,30.30,SSW,207,3.0,8.0,42,0.00,,,0.00,meteohub,2013-03-18 05:12:00,
2013-03-18 01:17:00,33.8,12.6,30.30,SW,219,2.0,8.0,41,0.00,,,0.00,meteohub,2013-03-18 05:17:00,
2013-03-18 01:22:00,33.6,12.4,30.30,SSW,212,1.0,8.0,41,0.00,,,0.00,meteohub,2013-03-18 05:22:00,
2013-03-18 01:27:00,33.6,11.8,30.30,SW,217,1.0,8.0,40,0.00,,,0.00,meteohub,2013-03-18 05:27:00,
2013-03-18 01:32:00,33.6,12.4,30.30,SSW,208,2.0,8.0,41,0.00,,,0.00,meteohub,2013-03-18 05:32:00,
2013-03-18 01:37:00,33.4,12.2,30.30,SW,219,0.0,8.0,41,0.00,,,0.00,meteohub,2013-03-18 05:37:00,
2013-03-18 01:42:00,33.4,12.7,30.30,SW,222,0.0,8.0,42,0.00,,,0.00,meteohub,2013-03-18 05:42:00,
2013-03-18 01:47:00,33.3,13.1,30.30,SW,225,3.0,7.0,43,0.00,,,0.00,meteohub,2013-03-18 05:47:00,
2013-03-18 01:52:00,33.3,13.6,30.30,WSW,256,5.0,7.0,44,0.00,,,0.00,meteohub,2013-03-18 05:52:00,
2013-03-18 01:57:00,33.1,13.5,30.30,SW,218,3.0,7.0,44,0.00,,,0.00,meteohub,2013-03-18 05:57:00,
2013-03-18 02:02:00,33.1,14.0,30.31,SW,215,1.0,7.0,45,0.00,,,0.00,meteohub,2013-03-18 06:02:00,
2013-03-18 02:07:00,32.7,13.6,30.30,SW,222,2.0,7.0,45,0.00,,,0.00,meteohub,2013-03-18 06:07:00,
2013-03-18 02:12:00,32.7,13.6,30.30,SW,218,1.0,6.0,45,0.00,,,0.00,meteohub,2013-03-18 06:12:00,
2013-03-18 02:17:00,32.5,13.6,30.31,SSW,207,1.0,6.0,45,0.00,,,0.00,meteohub,2013-03-18 06:17:00,
2013-03-18 02:22:00,32.4,13.5,30.31,SW,226,4.0,4.0,45,0.00,,,0.00,meteohub,2013-03-18 06:22:00,
2013-03-18 02:27:00,32.4,12.9,30.31,SSW,208,0.0,4.0,44,0.00,,,0.00,meteohub,2013-03-18 06:27:00,
2013-03-18 02:32:00,32.4,12.9,30.31,SW,222,4.0,7.0,44,0.00,,,0.00,meteohub,2013-03-18 06:32:00,
2013-03-18 02:37:00,32.4,12.9,30.31,SSW,212,0.0,7.0,44,0.00,,,0.00,meteohub,2013-03-18 06:37:00,
2013-03-18 02:42:00,32.2,12.7,30.32,SW,217,1.0,7.0,44,0.00,,,0.00,meteohub,2013-03-18 06:42:00,
2013-03-18 02:47:00,32.2,13.3,30.31,SW,233,4.0,7.0,45,0.00,,,0.00,meteohub,2013-03-18 06:47:00,
2013-03-18 02:52:00,32.2,12.7,30.32,SW,228,5.0,6.0,44,0.00,,,0.00,meteohub,2013-03-18 06:52:00,
2013-03-18 02:57:00,32.0,12.0,30.32,SW,224,2.0,6.0,43,0.00,,,0.00,meteohub,2013-03-18 06:57:00,
2013-03-18 03:02:00,32.0,12.6,30.32,SW,225,3.0,6.0,44,0.00,,,0.00,meteohub,2013-03-18 07:02:00,
2013-03-18 03:07:00,31.8,12.9,30.33,SSW,212,1.0,6.0,45,0.00,,,0.00,meteohub,2013-03-18 07:07:00,
2013-03-18 03:12:00,31.6,12.2,30.33,SSW,207,0.0,6.0,44,0.00,,,0.00,meteohub,2013-03-18 07:12:00,
2013-03-18 03:18:00,31.6,11.7,30.33,SW,215,5.0,6.0,43,0.00,,,0.00,meteohub,2013-03-18 07:18:00,
2013-03-18 03:23:00,31.5,11.5,30.33,SW,228,4.0,7.0,43,0.00,,,0.00,meteohub,2013-03-18 07:23:00,
2013-03-18 03:28:00,31.5,11.5,30.34,SW,224,3.0,7.0,43,0.00,,,0.00,meteohub,2013-03-18 07:28:00,
2013-03-18 03:34:00,31.5,11.5,30.34,SW,224,1.0,7.0,43,0.00,,,0.00,meteohub,2013-03-18 07:34:00,
2013-03-18 03:39:00,31.3,11.8,30.35,SW,219,1.0,6.0,44,0.00,,,0.00,meteohub,2013-03-18 07:39:00,
2013-03-18 03:44:00,31.1,12.2,30.35,SW,219,1.0,6.0,45,0.00,,,0.00,meteohub,2013-03-18 07:44:00,
2013-03-18 03:49:00,30.9,11.5,30.35,SW,224,1.0,4.0,44,0.00,,,0.00,meteohub,2013-03-18 07:49:00,
2013-03-18 03:54:00,30.7,11.5,30.35,WSW,240,2.0,4.0,44,0.00,,,0.00,meteohub,2013-03-18 07:54:00,
2013-03-18 03:59:00,30.7,11.5,30.35,SW,219,2.0,6.0,44,0.00,,,0.00,meteohub,2013-03-18 07:59:00,
2013-03-18 04:04:00,30.6,11.7,30.35,SW,228,6.0,6.0,45,0.00,,,0.00,meteohub,2013-03-18 08:04:00,
2013-03-18 04:10:00,30.6,11.7,30.35,SSW,211,2.0,6.0,45,0.00,,,0.00,meteohub,2013-03-18 08:10:00,
2013-03-18 04:15:00,30.6,11.7,30.35,SW,228,4.0,6.0,45,0.00,,,0.00,meteohub,2013-03-18 08:15:00,
2013-03-18 04:20:00,30.4,11.7,30.35,SW,222,2.0,7.0,45,0.00,,,0.00,meteohub,2013-03-18 08:20:00,
2013-03-18 04:25:00,30.4,12.0,30.35,SW,219,2.0,7.0,46,0.00,,,0.00,meteohub,2013-03-18 08:25:00,
2013-03-18 04:30:00,30.2,11.8,30.35,SSW,212,0.0,5.0,46,0.00,,,0.00,meteohub,2013-03-18 08:30:00,
2013-03-18 04:35:00,30.2,11.8,30.35,SW,217,1.0,5.0,46,0.00,,,0.00,meteohub,2013-03-18 08:35:00,
2013-03-18 04:40:00,30.0,11.7,30.36,SSW,211,1.0,5.0,46,0.00,,,0.00,meteohub,2013-03-18 08:40:00,
2013-03-18 04:45:00,30.0,11.7,30.35,SW,218,0.0,5.0,46,0.00,,,0.00,meteohub,2013-03-18 08:45:00,
2013-03-18 04:50:00,30.0,11.7,30.35,SSW,204,1.0,5.0,46,0.00,,,0.00,meteohub,2013-03-18 08:50:00,
2013-03-18 04:56:00,30.0,12.2,30.36,SW,219,1.0,6.0,47,0.00,,,0.00,meteohub,2013-03-18 08:56:00,
2013-03-18 05:01:00,30.0,12.2,30.35,SW,228,3.0,6.0,47,0.00,,,0.00,meteohub,2013-03-18 09:01:00,
2013-03-18 05:06:00,29.8,12.0,30.36,SSW,212,0.0,6.0,47,0.00,,,0.00,meteohub,2013-03-18 09:06:00,
2013-03-18 05:11:00,29.8,12.6,30.36,SW,219,1.0,6.0,48,0.00,,,0.00,meteohub,2013-03-18 09:11:00,
2013-03-18 05:16:00,29.7,12.4,30.37,SSW,211,1.0,5.0,48,0.00,,,0.00,meteohub,2013-03-18 09:16:00,
2013-03-18 05:21:00,29.7,12.9,30.37,SW,218,0.0,5.0,49,0.00,,,0.00,meteohub,2013-03-18 09:21:00,
2013-03-18 05:27:00,29.7,12.9,30.37,SW,215,1.0,5.0,49,0.00,,,0.00,meteohub,2013-03-18 09:27:00,
2013-03-18 05:32:00,29.7,13.3,30.37,SW,217,0.0,5.0,50,0.00,,,0.00,meteohub,2013-03-18 09:32:00,
2013-03-18 05:37:00,29.7,13.3,30.37,SW,215,2.0,5.0,50,0.00,,,0.00,meteohub,2013-03-18 09:37:00,
2013-03-18 05:42:00,29.7,13.3,30.37,SW,221,5.0,5.0,50,0.00,,,0.00,meteohub,2013-03-18 09:42:00,
2013-03-18 05:48:00,29.7,12.9,30.37,SW,221,2.0,5.0,49,0.00,,,0.00,meteohub,2013-03-18 09:48:00,
2013-03-18 05:53:00,29.7,12.9,30.37,SSW,207,2.0,7.0,49,0.00,,,0.00,meteohub,2013-03-18 09:53:00,
2013-03-18 05:58:00,29.7,12.9,30.36,SSW,205,7.0,7.0,49,0.00,,,0.00,meteohub,2013-03-18 09:58:00,
2013-03-18 06:03:00,29.7,12.9,30.37,SSW,204,0.0,7.0,49,0.00,,,0.00,meteohub,2013-03-18 10:03:00,
2013-03-18 06:08:00,29.7,12.9,30.37,SW,228,3.0,7.0,49,0.00,,,0.00,meteohub,2013-03-18 10:08:00,
2013-03-18 06:14:00,29.7,12.9,30.38,SW,219,2.0,7.0,49,0.00,,,0.00,meteohub,2013-03-18 10:14:00,
2013-03-18 06:19:00,29.7,13.3,30.38,SSW,207,3.0,8.0,50,0.00,,,0.00,meteohub,2013-03-18 10:19:00,
2013-03-18 06:24:00,29.7,13.3,30.38,SSW,205,2.0,8.0,50,0.00,,,0.00,meteohub,2013-03-18 10:24:00,
2013-03-18 06:29:00,29.7,13.3,30.38,SSW,200,3.0,8.0,50,0.00,,,0.00,meteohub,2013-03-18 10:29:00,
2013-03-18 06:34:00,29.7,13.3,30.39,SSW,212,2.0,8.0,50,0.00,,,0.00,meteohub,2013-03-18 10:34:00,
2013-03-18 06:40:00,29.7,13.8,30.38,SW,224,1.0,8.0,51,0.00,,,0.00,meteohub,2013-03-18 10:40:00,
2013-03-18 06:45:00,29.7,13.8,30.38,SW,225,3.0,7.0,51,0.00,,,0.00,meteohub,2013-03-18 10:45:00,
2013-03-18 06:50:00,29.7,14.2,30.38,SW,222,2.0,7.0,52,0.00,,,0.00,meteohub,2013-03-18 10:50:00,
2013-03-18 06:55:00,29.7,14.2,30.38,SSW,208,1.0,7.0,52,0.00,,,0.00,meteohub,2013-03-18 10:55:00,
2013-03-18 07:01:00,29.7,14.5,30.38,SSW,211,0.0,7.0,53,0.00,,,0.00,meteohub,2013-03-18 11:01:00,
2013-03-18 07:06:00,29.7,14.5,30.38,SW,217,1.0,4.0,53,0.00,,,0.00,meteohub,2013-03-18 11:06:00,
2013-03-18 07:11:00,29.7,15.1,30.38,SSW,208,0.0,4.0,54,0.00,,,0.00,meteohub,2013-03-18 11:11:00,
2013-03-18 07:17:00,29.8,15.3,30.39,SSW,208,1.0,4.0,54,0.00,,,0.00,meteohub,2013-03-18 11:17:00,
2013-03-18 07:22:00,29.8,15.3,30.39,SSW,207,1.0,4.0,54,0.00,,,0.00,meteohub,2013-03-18 11:22:00,
2013-03-18 07:27:00,29.8,15.3,30.39,SW,217,1.0,4.0,54,0.00,,,0.00,meteohub,2013-03-18 11:27:00,
2013-03-18 07:32:00,30.0,15.8,30.39,SSW,207,1.0,5.0,55,0.00,,,0.00,meteohub,2013-03-18 11:32:00,
2013-03-18 07:37:00,30.0,15.8,30.40,SW,215,0.0,5.0,55,0.00,,,0.00,meteohub,2013-03-18 11:37:00,
2013-03-18 07:42:00,30.2,15.6,30.39,SSW,203,1.0,5.0,54,0.00,,,0.00,meteohub,2013-03-18 11:42:00,
2013-03-18 07:47:00,30.4,16.2,30.39,SSW,208,0.0,5.0,55,0.00,,,0.00,meteohub,2013-03-18 11:47:00,
2013-03-18 07:52:00,30.4,15.8,30.39,SSW,204,1.0,4.0,54,0.00,,,0.00,meteohub,2013-03-18 11:52:00,
2013-03-18 07:57:00,30.4,16.2,30.39,SW,219,0.0,4.0,55,0.00,,,0.00,meteohub,2013-03-18 11:57:00,
2013-03-18 08:03:00,30.6,16.3,30.39,SSW,203,0.0,4.0,55,0.00,,,0.00,meteohub,2013-03-18 12:03:00,
2013-03-18 08:08:00,30.6,16.0,30.39,South,191,2.0,4.0,54,0.00,,,0.00,meteohub,2013-03-18 12:08:00,
2013-03-18 08:14:00,30.6,16.0,30.38,South,191,0.0,3.0,54,0.00,,,0.00,meteohub,2013-03-18 12:14:00,
2013-03-18 08:19:00,30.7,16.0,30.39,SSW,211,0.0,3.0,54,0.00,,,0.00,meteohub,2013-03-18 12:19:00,
2013-03-18 08:24:00,30.9,15.8,30.38,SSW,201,1.0,3.0,53,0.00,,,0.00,meteohub,2013-03-18 12:24:00,
2013-03-18 08:29:00,31.3,16.2,30.39,SSW,205,1.0,3.0,53,0.00,,,0.00,meteohub,2013-03-18 12:29:00,
2013-03-18 08:34:00,31.3,15.6,30.38,SSW,200,3.0,3.0,52,0.00,,,0.00,meteohub,2013-03-18 12:34:00,
2013-03-18 08:39:00,31.5,15.4,30.38,SSW,194,0.0,3.0,51,0.00,,,0.00,meteohub,2013-03-18 12:39:00,
2013-03-18 08:45:00,31.6,15.6,30.39,SSW,210,2.0,3.0,51,0.00,,,0.00,meteohub,2013-03-18 12:45:00,
2013-03-18 08:50:00,31.8,15.3,30.39,SSW,195,2.0,3.0,50,0.00,,,0.00,meteohub,2013-03-18 12:50:00,
2013-03-18 08:55:00,31.8,14.9,30.38,SW,222,3.0,5.0,49,0.00,,,0.00,meteohub,2013-03-18 12:55:00,
2013-03-18 09:00:00,32.2,15.1,30.38,SSW,195,1.0,5.0,49,0.00,,,0.00,meteohub,2013-03-18 13:00:00,
2013-03-18 09:06:00,32.4,14.9,30.38,SSW,205,2.0,5.0,48,0.00,,,0.00,meteohub,2013-03-18 13:06:00,
2013-03-18 09:11:00,32.5,15.4,30.38,SW,229,3.0,5.0,49,0.00,,,0.00,meteohub,2013-03-18 13:11:00,
2013-03-18 09:17:00,32.5,15.1,30.38,SSW,197,2.0,5.0,48,0.00,,,0.00,meteohub,2013-03-18 13:17:00,
2013-03-18 09:22:00,32.7,15.3,30.38,SSW,205,2.0,5.0,48,0.00,,,0.00,meteohub,2013-03-18 13:22:00,
2013-03-18 09:27:00,33.1,15.4,30.38,SSW,198,1.0,5.0,48,0.00,,,0.00,meteohub,2013-03-18 13:27:00,
2013-03-18 09:33:00,33.3,15.6,30.38,SW,218,2.0,6.0,48,0.00,,,0.00,meteohub,2013-03-18 13:33:00,
2013-03-18 09:38:00,33.3,16.2,30.38,SSW,192,2.0,6.0,49,0.00,,,0.00,meteohub,2013-03-18 13:38:00,
2013-03-18 09:43:00,33.4,16.3,30.39,South,188,0.0,6.0,49,0.00,,,0.00,meteohub,2013-03-18 13:43:00,
2013-03-18 09:48:00,33.6,16.5,30.38,South,179,1.0,6.0,49,0.00,,,0.00,meteohub,2013-03-18 13:48:00,
2013-03-18 09:54:00,34.0,17.2,30.39,SSW,195,0.0,5.0,50,0.00,,,0.00,meteohub,2013-03-18 13:54:00,
2013-03-18 09:59:00,34.0,17.2,30.39,SSW,200,0.0,5.0,50,0.00,,,0.00,meteohub,2013-03-18 13:59:00,
2013-03-18 10:04:00,34.3,17.6,30.39,SSW,198,0.0,5.0,50,0.00,,,0.00,meteohub,2013-03-18 14:04:00,
2013-03-18 10:09:00,34.3,17.6,30.39,SSW,195,1.0,5.0,50,0.00,,,0.00,meteohub,2013-03-18 14:09:00,
2013-03-18 10:14:00,34.5,17.8,30.38,SSW,200,1.0,3.0,50,0.00,,,0.00,meteohub,2013-03-18 14:14:00,
2013-03-18 10:20:00,34.5,18.3,30.38,South,184,2.0,3.0,51,0.00,,,0.00,meteohub,2013-03-18 14:20:00,
2013-03-18 10:25:00,34.9,18.5,30.38,South,174,0.0,3.0,51,0.00,,,0.00,meteohub,2013-03-18 14:25:00,
2013-03-18 10:30:00,34.9,18.5,30.38,SSW,200,1.0,3.0,51,0.00,,,0.00,meteohub,2013-03-18 14:30:00,
2013-03-18 10:35:00,35.4,19.0,30.38,SSW,201,0.0,4.0,51,0.00,,,0.00,meteohub,2013-03-18 14:35:00,
2013-03-18 10:40:00,35.8,19.0,30.38,SSW,193,0.0,4.0,50,0.00,,,0.00,meteohub,2013-03-18 14:40:00,
2013-03-18 10:46:00,36.1,19.8,30.38,SSW,201,0.0,4.0,51,0.00,,,0.00,meteohub,2013-03-18 14:46:00,
2013-03-18 10:52:00,36.3,19.9,30.37,South,180,2.0,5.0,51,0.00,,,0.00,meteohub,2013-03-18 14:52:00,
2013-03-18 10:57:00,36.7,20.7,30.37,SSE,168,1.0,5.0,52,0.00,,,0.00,meteohub,2013-03-18 14:57:00,
2013-03-18 11:02:00,36.7,20.7,30.36,SW,217,1.0,5.0,52,0.00,,,0.00,meteohub,2013-03-18 15:02:00,
2013-03-18 11:07:00,37.0,21.6,30.37,SSW,204,1.0,5.0,53,0.00,,,0.00,meteohub,2013-03-18 15:07:00,
2013-03-18 11:12:00,37.2,21.7,30.36,SSE,158,5.0,5.0,53,0.00,,,0.00,meteohub,2013-03-18 15:12:00,
2013-03-18 11:17:00,37.2,22.1,30.36,South,176,6.0,6.0,54,0.00,,,0.00,meteohub,2013-03-18 15:17:00,
2013-03-18 11:22:00,37.2,22.1,30.36,SSW,201,0.0,6.0,54,0.00,,,0.00,meteohub,2013-03-18 15:22:00,
2013-03-18 11:28:00,37.6,21.9,30.36,SSE,163,1.0,6.0,53,0.00,,,0.00,meteohub,2013-03-18 15:28:00,
2013-03-18 11:33:00,37.2,21.7,30.36,South,173,3.0,7.0,53,0.00,,,0.00,meteohub,2013-03-18 15:33:00,
2013-03-18 11:38:00,36.9,21.4,30.35,SSW,193,1.0,7.0,53,0.00,,,0.00,meteohub,2013-03-18 15:38:00,
2013-03-18 11:43:00,36.7,21.6,30.36,SSW,198,4.0,7.0,54,0.00,,,0.00,meteohub,2013-03-18 15:43:00,
2013-03-18 11:48:00,36.3,21.7,30.35,South,190,3.0,7.0,55,0.00,,,0.00,meteohub,2013-03-18 15:48:00,
2013-03-18 11:54:00,36.1,21.6,30.35,South,188,2.0,8.0,55,0.00,,,0.00,meteohub,2013-03-18 15:54:00,
2013-03-18 11:59:00,36.1,21.6,30.35,SSW,193,2.0,8.0,55,0.00,,,0.00,meteohub,2013-03-18 15:59:00,
2013-03-18 12:04:00,36.1,21.9,30.35,SSW,211,1.0,8.0,56,0.00,,,0.00,meteohub,2013-03-18 16:04:00,
2013-03-18 12:09:00,36.3,22.1,30.35,SSW,193,2.0,8.0,56,0.00,,,0.00,meteohub,2013-03-18 16:09:00,
2013-03-18 12:14:00,36.1,21.6,30.34,SSW,198,2.0,8.0,55,0.00,,,0.00,meteohub,2013-03-18 16:14:00,
2013-03-18 12:19:00,36.5,22.3,30.34,SSW,201,1.0,6.0,56,0.00,,,0.00,meteohub,2013-03-18 16:19:00,
2013-03-18 12:24:00,36.9,22.3,30.34,South,174,2.0,6.0,55,0.00,,,0.00,meteohub,2013-03-18 16:24:00,
2013-03-18 12:30:00,36.3,22.1,30.35,SSW,194,1.0,6.0,56,0.00,,,0.00,meteohub,2013-03-18 16:30:00,
2013-03-18 12:35:00,36.9,22.6,30.34,South,184,1.0,6.0,56,0.00,,,0.00,meteohub,2013-03-18 16:35:00,
2013-03-18 12:40:00,36.9,22.6,30.35,SSW,205,2.0,8.0,56,0.00,,,0.00,meteohub,2013-03-18 16:40:00,
2013-03-18 12:45:00,37.0,22.8,30.34,South,181,2.0,8.0,56,0.00,,,0.00,meteohub,2013-03-18 16:45:00,
2013-03-18 12:50:00,37.0,22.8,30.34,SSE,156,2.0,8.0,56,0.00,,,0.00,meteohub,2013-03-18 16:50:00,
2013-03-18 12:56:00,37.2,23.0,30.33,South,172,4.0,8.0,56,0.00,,,0.00,meteohub,2013-03-18 16:56:00,
2013-03-18 13:01:00,37.4,23.2,30.33,SW,221,2.0,8.0,56,0.00,,,0.00,meteohub,2013-03-18 17:01:00,
2013-03-18 13:07:00,37.6,23.4,30.33,South,184,4.0,8.0,56,0.00,,,0.00,meteohub,2013-03-18 17:07:00,
2013-03-18 13:12:00,37.6,23.4,30.32,SSW,193,3.0,8.0,56,0.00,,,0.00,meteohub,2013-03-18 17:12:00,
2013-03-18 13:17:00,37.8,23.9,30.31,SW,216,1.0,8.0,57,0.00,,,0.00,meteohub,2013-03-18 17:17:00,
2013-03-18 13:22:00,37.6,23.4,30.31,South,183,2.0,8.0,56,0.00,,,0.00,meteohub,2013-03-18 17:22:00,
2013-03-18 13:27:00,37.4,23.5,30.31,South,179,1.0,8.0,57,0.00,,,0.00,meteohub,2013-03-18 17:27:00,
2013-03-18 13:32:00,37.2,23.0,30.30,South,176,1.0,7.0,56,0.00,,,0.00,meteohub,2013-03-18 17:32:00,
2013-03-18 13:37:00,37.0,23.2,30.30,SSW,201,1.0,7.0,57,0.00,,,0.00,meteohub,2013-03-18 17:37:00,
2013-03-18 13:42:00,37.4,23.5,30.29,SE,146,6.0,6.0,57,0.00,,,0.00,meteohub,2013-03-18 17:42:00,
2013-03-18 13:47:00,37.2,23.4,30.29,South,179,1.0,6.0,57,0.00,,,0.00,meteohub,2013-03-18 17:47:00,
2013-03-18 13:52:00,37.2,23.7,30.30,SSW,203,3.0,8.0,58,0.00,,,0.00,meteohub,2013-03-18 17:52:00,
2013-03-18 13:57:00,37.2,23.7,30.29,South,181,1.0,8.0,58,0.00,,,0.00,meteohub,2013-03-18 17:57:00,
2013-03-18 14:02:00,37.2,24.3,30.29,SSW,203,1.0,8.0,59,0.00,,,0.00,meteohub,2013-03-18 18:02:00,
2013-03-18 14:07:00,37.6,24.1,30.28,SSW,195,1.0,8.0,58,0.00,,,0.00,meteohub,2013-03-18 18:07:00,
2013-03-18 14:12:00,37.4,23.9,30.28,South,184,2.0,5.0,58,0.00,,,0.00,meteohub,2013-03-18 18:12:00,
2013-03-18 14:17:00,37.0,24.1,30.28,SSW,207,0.0,5.0,59,0.00,,,0.00,meteohub,2013-03-18 18:17:00,
2013-03-18 14:22:00,37.2,23.7,30.28,SSW,195,1.0,5.0,58,0.00,,,0.00,meteohub,2013-03-18 18:22:00,
2013-03-18 14:27:00,37.2,23.7,30.28,SSW,202,0.0,9.0,58,0.00,,,0.00,meteohub,2013-03-18 18:27:00,
2013-03-18 14:32:00,36.9,23.9,30.27,SSW,197,1.0,9.0,59,0.00,,,0.00,meteohub,2013-03-18 18:32:00,
2013-03-18 14:37:00,36.9,23.9,30.27,South,177,1.0,6.0,59,0.00,,,0.00,meteohub,2013-03-18 18:37:00,
2013-03-18 14:43:00,37.0,24.1,30.27,SW,217,0.0,6.0,59,0.00,,,0.00,meteohub,2013-03-18 18:43:00,
2013-03-18 14:48:00,37.0,24.4,30.26,South,188,1.0,6.0,60,0.00,,,0.00,meteohub,2013-03-18 18:48:00,
2013-03-18 14:53:00,37.2,24.6,30.25,SSW,205,1.0,6.0,60,0.00,,,0.00,meteohub,2013-03-18 18:53:00,
2013-03-18 14:59:00,37.0,24.1,30.25,South,179,2.0,6.0,59,0.00,,,0.00,meteohub,2013-03-18 18:59:00,
2013-03-18 15:04:00,36.9,24.3,30.25,SSW,194,1.0,6.0,60,0.00,,,0.00,meteohub,2013-03-18 19:04:00,
2013-03-18 15:09:00,36.9,24.6,30.24,SSW,201,1.0,6.0,61,0.00,,,0.00,meteohub,2013-03-18 19:09:00,
2013-03-18 15:14:00,36.9,24.6,30.24,SSW,196,0.0,7.0,61,0.00,,,0.00,meteohub,2013-03-18 19:14:00,
2013-03-18 15:20:00,36.7,24.4,30.24,SSW,207,1.0,7.0,61,0.00,,,0.00,meteohub,2013-03-18 19:20:00,
2013-03-18 15:25:00,36.1,24.4,30.24,SW,224,2.0,7.0,62,0.00,,,0.00,meteohub,2013-03-18 19:25:00,
2013-03-18 15:30:00,36.3,25.0,30.24,SSW,196,1.0,9.0,63,0.00,,,0.00,meteohub,2013-03-18 19:30:00,
2013-03-18 15:36:00,36.3,24.6,30.24,South,188,1.0,9.0,62,0.00,,,0.00,meteohub,2013-03-18 19:36:00,
2013-03-18 15:41:00,36.1,24.8,30.23,SSW,193,2.0,5.0,63,0.00,,,0.00,meteohub,2013-03-18 19:41:00,
2013-03-18 15:46:00,36.0,24.6,30.23,SSE,165,2.0,5.0,63,0.00,,,0.00,meteohub,2013-03-18 19:46:00,
2013-03-18 15:51:00,36.0,25.0,30.24,South,186,2.0,5.0,64,0.00,,,0.00,meteohub,2013-03-18 19:51:00,
2013-03-18 15:56:00,36.0,25.0,30.24,SSW,200,1.0,5.0,64,0.00,,,0.00,meteohub,2013-03-18 19:56:00,
2013-03-18 16:02:00,35.8,24.8,30.23,South,181,4.0,6.0,64,0.00,,,0.00,meteohub,2013-03-18 20:02:00,
2013-03-18 16:07:00,35.8,25.2,30.22,South,178,2.0,6.0,65,0.00,,,0.00,meteohub,2013-03-18 20:07:00,
2013-03-18 16:12:00,36.0,25.3,30.22,South,183,1.0,7.0,65,0.00,,,0.00,meteohub,2013-03-18 20:12:00,
2013-03-18 16:17:00,36.0,25.7,30.22,SSW,197,1.0,7.0,66,0.00,,,0.00,meteohub,2013-03-18 20:17:00,
2013-03-18 16:22:00,35.8,26.2,30.21,South,188,2.0,7.0,68,0.00,,,0.00,meteohub,2013-03-18 20:22:00,
2013-03-18 16:27:00,35.4,26.2,30.21,SSW,201,2.0,7.0,69,0.00,,,0.00,meteohub,2013-03-18 20:27:00,
2013-03-18 16:32:00,35.2,26.8,30.22,SSW,212,4.0,6.0,71,0.00,,,0.00,meteohub,2013-03-18 20:32:00,
2013-03-18 16:37:00,35.1,27.0,30.21,South,176,2.0,6.0,72,0.00,,,0.00,meteohub,2013-03-18 20:37:00,
2013-03-18 16:42:00,35.1,27.7,30.21,SSW,201,1.0,7.0,74,0.00,,,0.00,meteohub,2013-03-18 20:42:00,
2013-03-18 16:47:00,34.7,27.7,30.22,SSW,201,3.0,7.0,75,0.00,,,0.00,meteohub,2013-03-18 20:47:00,
2013-03-18 16:52:00,34.5,27.7,30.21,SSW,198,1.0,5.0,76,0.00,,,0.00,meteohub,2013-03-18 20:52:00,
2013-03-18 16:57:00,34.5,28.4,30.20,SW,232,2.0,5.0,78,0.00,,,0.00,meteohub,2013-03-18 20:57:00,
2013-03-18 17:02:00,34.3,28.6,30.20,SSW,201,3.0,5.0,79,0.00,,,0.00,meteohub,2013-03-18 21:02:00,
2013-03-18 17:08:00,34.2,28.6,30.20,South,179,2.0,5.0,80,0.00,,,0.00,meteohub,2013-03-18 21:08:00,
2013-03-18 17:13:00,34.2,28.9,30.20,SSW,198,0.0,6.0,81,0.00,,,0.00,meteohub,2013-03-18 21:13:00,
2013-03-18 17:18:00,34.0,29.1,30.19,South,169,2.0,6.0,82,0.00,,,0.00,meteohub,2013-03-18 21:18:00,
2013-03-18 17:24:00,34.0,29.3,30.19,SSW,203,2.0,6.0,83,0.00,,,0.00,meteohub,2013-03-18 21:24:00,
2013-03-18 17:29:00,34.0,29.7,30.19,SSW,195,1.0,5.0,84,0.00,,,0.00,meteohub,2013-03-18 21:29:00,
2013-03-18 17:34:00,33.8,29.8,30.19,SSW,208,4.0,5.0,85,0.00,,,0.00,meteohub,2013-03-18 21:34:00,
2013-03-18 17:39:00,33.6,29.7,30.20,SSW,195,1.0,4.0,85,0.00,,,0.00,meteohub,2013-03-18 21:39:00,
2013-03-18 17:46:00,33.6,29.8,30.20,SSW,212,3.0,4.0,86,0.00,,,0.00,meteohub,2013-03-18 21:46:00,
2013-03-18 17:51:00,33.8,30.0,30.19,SSW,210,1.0,4.0,86,0.00,,,0.00,meteohub,2013-03-18 21:51:00,
2013-03-18 17:56:00,33.8,30.0,30.19,SSW,207,1.0,4.0,86,0.00,,,0.00,meteohub,2013-03-18 21:56:00,
2013-03-18 18:01:00,34.0,30.6,30.19,SSW,212,2.0,3.0,87,0.00,,,0.00,meteohub,2013-03-18 22:01:00,
2013-03-18 18:07:00,34.0,30.6,30.19,South,181,1.0,3.0,87,0.00,,,0.00,meteohub,2013-03-18 22:07:00,
2013-03-18 18:12:00,33.8,30.6,30.19,SSW,192,1.0,3.0,88,0.00,,,0.00,meteohub,2013-03-18 22:12:00,
2013-03-18 18:17:00,33.6,30.4,30.19,South,188,1.0,3.0,88,0.00,,,0.00,meteohub,2013-03-18 22:17:00,
2013-03-18 18:22:00,33.6,30.4,30.18,South,191,1.0,3.0,88,0.00,,,0.00,meteohub,2013-03-18 22:22:00,
2013-03-18 18:28:00,33.6,30.4,30.19,South,188,2.0,3.0,88,0.00,,,0.00,meteohub,2013-03-18 22:28:00,
2013-03-18 18:33:00,33.6,30.4,30.19,South,188,1.0,3.0,88,0.00,,,0.00,meteohub,2013-03-18 22:33:00,
2013-03-18 18:38:00,33.4,30.2,30.18,South,180,1.0,3.0,88,0.00,,,0.00,meteohub,2013-03-18 22:38:00,
2013-03-18 18:43:00,33.3,30.4,30.16,South,191,1.0,3.0,89,0.00,,,0.00,meteohub,2013-03-18 22:43:00,
2013-03-18 18:49:00,33.3,30.4,30.13,ESE,104,2.0,3.0,89,0.00,,,0.00,meteohub,2013-03-18 22:49:00,
2013-03-18 18:54:00,33.1,30.4,30.13,South,188,1.0,5.0,90,0.00,,,0.00,meteohub,2013-03-18 22:54:00,
2013-03-18 18:59:00,33.1,30.4,30.12,South,169,3.0,5.0,90,0.00,,,0.00,meteohub,2013-03-18 22:59:00,
2013-03-18 19:04:00,32.9,30.4,30.13,South,187,2.0,5.0,90,0.00,,,0.00,meteohub,2013-03-18 23:04:00,
2013-03-18 19:09:00,32.9,30.6,30.13,SSW,195,0.0,9.0,91,0.00,,,0.00,meteohub,2013-03-18 23:09:00,
2013-03-18 19:15:00,32.9,30.6,30.14,SW,219,1.0,9.0,91,0.00,,,0.00,meteohub,2013-03-18 23:15:00,
2013-03-18 19:20:00,32.9,30.6,30.13,SSW,193,0.0,7.0,91,0.00,,,0.00,meteohub,2013-03-18 23:20:00,
2013-03-18 19:25:00,33.1,30.7,30.13,SSW,198,0.0,7.0,91,0.00,,,0.00,meteohub,2013-03-18 23:25:00,
2013-03-18 19:30:00,33.1,30.7,30.12,SSW,195,1.0,7.0,91,0.00,,,0.00,meteohub,2013-03-18 23:30:00,
2013-03-18 19:35:00,33.1,31.1,30.12,SSW,200,1.0,7.0,92,0.00,,,0.00,meteohub,2013-03-18 23:35:00,
2013-03-18 19:41:00,33.1,31.1,30.12,SE,142,1.0,6.0,92,0.00,,,0.00,meteohub,2013-03-18 23:41:00,
2013-03-18 19:47:00,33.1,31.1,30.12,SSE,162,1.0,6.0,92,0.00,,,0.00,meteohub,2013-03-18 23:47:00,
2013-03-18 19:52:00,33.1,31.1,30.11,SSW,194,0.0,7.0,92,0.00,,,0.00,meteohub,2013-03-18 23:52:00,
2013-03-18 19:57:00,33.1,31.1,30.11,SE,137,2.0,7.0,92,0.00,,,0.00,meteohub,2013-03-18 23:57:00,
2013-03-18 20:02:00,33.1,31.3,30.11,SSW,205,0.0,7.0,93,0.00,,,0.00,meteohub,2013-03-19 00:02:00,
2013-03-18 20:07:00,33.1,31.3,30.11,SSW,205,0.0,7.0,93,0.00,,,0.00,meteohub,2013-03-19 00:07:00,
2013-03-18 20:13:00,33.1,31.3,30.11,SSW,195,0.0,3.0,93,0.00,,,0.00,meteohub,2013-03-19 00:13:00,
2013-03-18 20:18:00,33.1,31.3,30.11,South,186,1.0,3.0,93,0.00,,,0.00,meteohub,2013-03-19 00:18:00,
2013-03-18 20:23:00,33.1,31.3,30.11,SSW,205,0.0,3.0,93,0.00,,,0.00,meteohub,2013-03-19 00:23:00,
2013-03-18 20:29:00,33.1,31.3,30.11,SSW,195,0.0,4.0,93,0.00,,,0.00,meteohub,2013-03-19 00:29:00,
2013-03-18 20:34:00,33.3,31.5,30.11,South,182,1.0,4.0,93,0.00,,,0.00,meteohub,2013-03-19 00:34:00,
2013-03-18 20:39:00,33.1,31.3,30.10,SW,218,1.0,2.0,93,0.00,,,0.00,meteohub,2013-03-19 00:39:00,
2013-03-18 20:44:00,33.3,31.5,30.10,SSW,201,1.0,2.0,93,0.00,,,0.00,meteohub,2013-03-19 00:44:00,
2013-03-18 20:50:00,33.3,31.5,30.09,SSW,201,0.0,3.0,93,0.00,,,0.00,meteohub,2013-03-19 00:50:00,
2013-03-18 20:55:00,33.3,31.5,30.09,SSW,195,0.0,3.0,93,0.00,,,0.00,meteohub,2013-03-19 00:55:00,
2013-03-18 21:00:00,33.3,31.6,30.09,South,185,0.0,4.0,94,0.00,,,0.00,meteohub,2013-03-19 01:00:00,
2013-03-18 21:05:00,33.4,31.8,30.08,SSW,193,0.0,4.0,94,0.00,,,0.00,meteohub,2013-03-19 01:05:00,
2013-03-18 21:10:00,33.4,31.8,30.08,SSW,200,0.0,4.0,94,0.00,,,0.00,meteohub,2013-03-19 01:10:00,
2013-03-18 21:15:00,33.6,32.0,30.08,SSW,202,0.0,2.0,94,0.00,,,0.00,meteohub,2013-03-19 01:15:00,
2013-03-18 21:21:00,33.6,32.0,30.07,SSW,198,0.0,2.0,94,0.00,,,0.00,meteohub,2013-03-19 01:21:00,
2013-03-18 21:26:00,33.6,32.0,30.07,SSW,194,1.0,2.0,94,0.00,,,0.00,meteohub,2013-03-19 01:26:00,
2013-03-18 21:31:00,33.8,32.2,30.06,South,186,0.0,3.0,94,0.00,,,0.00,meteohub,2013-03-19 01:31:00,
2013-03-18 21:36:00,33.8,32.2,30.07,SW,215,2.0,3.0,94,0.00,,,0.00,meteohub,2013-03-19 01:36:00,
2013-03-18 21:42:00,34.0,32.4,30.06,SSE,158,1.0,2.0,94,0.00,,,0.00,meteohub,2013-03-19 01:42:00,
2013-03-18 21:47:00,34.0,32.4,30.06,SSW,198,1.0,2.0,94,0.00,,,0.00,meteohub,2013-03-19 01:47:00,
2013-03-18 21:52:00,34.0,32.4,30.06,South,190,0.0,4.0,94,0.00,,,0.00,meteohub,2013-03-19 01:52:00,
2013-03-18 21:57:00,34.2,32.5,30.06,SSW,203,2.0,4.0,94,0.00,,,0.00,meteohub,2013-03-19 01:57:00,
2013-03-18 22:02:00,34.2,32.5,30.06,South,188,1.0,4.0,94,0.00,,,0.00,meteohub,2013-03-19 02:02:00,
2013-03-18 22:07:00,34.2,32.5,30.06,SSW,194,1.0,4.0,94,0.00,,,0.00,meteohub,2013-03-19 02:07:00,
2013-03-18 22:12:00,34.3,32.7,30.06,SSW,205,0.0,3.0,94,0.00,,,0.00,meteohub,2013-03-19 02:12:00,
2013-03-18 22:17:00,34.3,32.7,30.06,SSW,202,1.0,3.0,94,0.00,,,0.00,meteohub,2013-03-19 02:17:00,
2013-03-18 22:23:00,34.3,32.7,30.05,SSW,208,2.0,3.0,94,0.00,,,0.00,meteohub,2013-03-19 02:23:00,
2013-03-18 22:28:00,34.3,32.7,30.05,South,184,1.0,3.0,94,0.00,,,0.00,meteohub,2013-03-19 02:28:00,
2013-03-18 22:33:00,34.5,32.9,30.05,SSW,195,2.0,3.0,94,0.00,,,0.00,meteohub,2013-03-19 02:33:00,
2013-03-18 22:38:00,34.5,32.9,30.05,SSW,201,2.0,3.0,94,0.00,,,0.00,meteohub,2013-03-19 02:38:00,
2013-03-18 22:44:00,34.5,32.9,30.05,SSW,193,0.0,4.0,94,0.00,,,0.00,meteohub,2013-03-19 02:44:00,
2013-03-18 22:49:00,34.5,32.9,30.05,SSW,195,1.0,4.0,94,0.00,,,0.00,meteohub,2013-03-19 02:49:00,
2013-03-18 22:54:00,34.5,32.9,30.05,SSW,207,1.0,5.0,94,0.00,,,0.00,meteohub,2013-03-19 02:54:00,
2013-03-18 22:59:00,34.5,32.9,30.04,SSW,209,0.0,4.0,94,0.00,,,0.00,meteohub,2013-03-19 02:59:00,
2013-03-18 23:04:00,34.5,32.9,30.04,SW,224,0.0,4.0,94,0.00,,,0.00,meteohub,2013-03-19 03:04:00,
2013-03-18 23:10:00,34.5,32.9,30.03,SSW,205,0.0,4.0,94,0.00,,,0.00,meteohub,2013-03-19 03:10:00,
2013-03-18 23:15:00,34.5,32.9,30.03,SSW,207,1.0,3.0,94,0.00,,,0.00,meteohub,2013-03-19 03:15:00,
2013-03-18 23:20:00,34.5,32.9,30.03,South,187,1.0,3.0,94,0.00,,,0.00,meteohub,2013-03-19 03:20:00,
2013-03-18 23:25:00,34.5,32.9,30.02,South,186,1.0,3.0,94,0.00,,,0.04,meteohub,2013-03-19 03:25:00,
2013-03-18 23:31:00,34.7,33.1,30.02,SSW,203,1.0,6.0,94,0.06,,,0.04,meteohub,2013-03-19 03:31:00,
2013-03-18 23:36:00,34.7,33.1,30.01,SSW,193,0.0,6.0,94,0.06,,,0.09,meteohub,2013-03-19 03:36:00,
2013-03-18 23:41:00,34.7,33.1,30.01,SSW,193,2.0,6.0,94,0.10,,,0.09,meteohub,2013-03-19 03:41:00,
2013-03-18 23:47:00,34.7,33.1,30.00,South,191,1.0,6.0,94,0.10,,,0.12,meteohub,2013-03-19 03:47:00,
2013-03-18 23:52:00,34.9,33.3,30.00,SSW,212,3.0,4.0,94,0.13,,,0.12,meteohub,2013-03-19 03:52:00,
2013-03-18 23:57:00,34.9,33.3,30.00,SSW,204,1.0,4.0,94,0.13,,,0.14,meteohub,2013-03-19 03:57:00,